カタログに戻る

FENGYUN 1C DEB

運用中PO
NORAD 29780·DEBRIS·🇨🇳 China

打ち上げ May 10, 1999 から Taiyuan Satellite Launch Center

Loading…

次のパス (今後24時間)

TLE

最新Source: Space-Track

元期: Sep 14, 2026, 19:26 UTC

1 29780U 99025BW  26257.80984101  .00002565  00000-0  11541-2 0  9996
2 29780  99.2811 198.0335 0042784  64.7700 295.7902 14.22787479  9998

AllMySatでFENGYUN 1C DEBをリアルタイム追跡

Download on the App Store